This demonstration page uses our WeatherBlox Daily Observations layout. Learn more.

Left ArrowRight Arrow

34.02893, -84.19858

Hourly Observations for February 19, 2022

Temp ( °F °C ) Dew Point ( °F °C ) Humidity (%) Winds ( mph kmh ) Pressure ( in mb ) Visibility ( mi km ) Precip ( " mm )
12:53 am 00:53 Clear 30 -1.1 22 -5.6 72 72 WNW 8 13 30.23 1024 10 16 0.00 0.00
1:53 am 01:53 Clear 29 -1.7 22 -5.6 75 75 WNW 7 11 30.23 1024 10 16 0.00 0.00
2:53 am 02:53 Clear 29 -1.7 21 -6.1 72 72 NW 9 15 30.22 1023 10 16 0.00 0.00
3:53 am 03:53 Clear 29 -1.7 21 -6.1 72 72 NW 6 9 30.22 1023 10 16 0.00 0.00
4:53 am 04:53 Clear 29 -1.7 21 -6.1 72 72 NW 9 15 30.22 1024 10 16 0.00 0.00
5:53 am 05:53 Clear 29 -1.7 21 -6.1 72 72 NW 9 15 30.27 1025 10 16 0.00 0.00
6:53 am 06:53 Clear 29 -1.7 21 -6.1 72 72 NW 6 9 30.30 1026 10 16 0.00 0.00
7:53 am 07:53 Sunny 31 -0.6 20 -6.7 64 64 NNW 5 7 30.34 1027 10 16 0.00 0.00
8:53 am 08:53 Sunny 36 2.2 19 -7.2 50 50 NNW 12 19 30.37 1028 10 16 0.00 0.00
9:53 am 09:53 Sunny 42 5.6 16 -8.9 35 35 NW 13 20 30.37 1029 10 16 0.00 0.00
10:53 am 10:53 Sunny 46 7.8 14 -10 27 27 NNW 15 24 30.37 1029 10 16 0.00 0.00
11:53 am 11:53 Sunny 49 9.4 15 -9.4 26 26 NNW 15 24 30.36 1028 10 16 0.00 0.00
12:53 pm 12:53 Sunny 51 10.6 19 -7.2 28 28 NW 10 17 30.35 1028 10 16 0.00 0.00
1:53 pm 13:53 Sunny 52 11.1 22 -5.6 31 31 NW 9 15 30.33 1027 10 16 0.00 0.00
2:53 pm 14:53 Sunny 54 12.2 25 -3.9 33 33 WNW 12 19 30.32 1027 10 16 0.00 0.00
3:53 pm 15:53 Sunny 55 12.8 25 -3.9 31 31 W 15 24 30.31 1026 10 16 0.00 0.00
4:53 pm 16:53 Sunny 54 12.2 23 -5 30 30 NW 14 22 30.30 1026 10 16 0.00 0.00
5:53 pm 17:53 Sunny 52 11.1 25 -3.9 35 35 NW 14 22 30.32 1027 10 16 0.00 0.00
6:53 pm 18:53 Clear 48 8.9 25 -3.9 41 41 NNW 7 11 30.34 1027 10 16 0.00 0.00
7:53 pm 19:53 Clear 46 7.8 25 -3.9 44 44 NNW 6 9 30.35 1028 10 16 0.00 0.00
8:53 pm 20:53 Clear 42 5.6 26 -3.3 53 53 NNW 5 7 30.37 1028 10 16 0.00 0.00
9:53 pm 21:53 Clear 44 6.7 22 -5.6 41 41 NNW 7 11 30.37 1029 10 16 0.00 0.00
10:53 pm 22:53 Clear 42 5.6 21 -6.1 43 43 NNW 6 9 30.37 1029 10 16 0.00 0.00
11:53 pm 23:53 Clear 41 5 21 -6.1 45 45 NW 6 9 30.37 1028 10 16 0.00 0.00

Powered by AerisWeather